FW8685 Weather Reports


Display with metric or nautical units.
time (UTC)temp
F
wind
direction
speed
MPH
gust
MPH
rain 1hr
in
rain 24hr
in
rain mn
in
humidity
%
barometer
mb
20260506035022 49 65 8.0 12.0 0.00 0.00 0.00 79 1011.5
20260506034539 49 38 6.0 10.0 0.00 0.00 0.00 79 1011.8
20260506034022 49 26 5.0 10.0 0.00 0.00 0.00 79 1011.7
20260506033521 49 350 5.0 12.0 0.00 0.00 0.00 80 1011.7
20260506033038 49 53 5.0 16.0 0.00 0.00 0.00 80 1011.5
20260506032521 49 30 7.0 16.0 0.00 0.00 0.00 81 1011.3
20260506032022 49 28 6.0 14.0 0.00 0.00 0.00 81 1011.2
20260506031554 49 22 5.0 12.0 0.00 0.00 0.00 81 1011.2
20260506031021 49 5 6.0 12.0 0.00 0.00 0.00 81 1011.3
20260506030523 49 9 3.0 10.0 0.00 0.00 0.00 81 1011.5
20260506030048 49 26 5.0 10.0 0.00 0.00 0.00 81 1011.4
20260506025525 49 21 5.0 10.0 0.00 0.00 0.00 81 1011.3
20260506025022 49 360 5.0 9.0 0.00 0.00 0.00 82 1011.3
20260506024540 49 327 4.0 8.0 0.00 0.00 0.00 82 1011.4
20260506024020 49 341 2.0 5.0 0.00 0.00 0.00 82 1011.3
20260506023522 50 352 1.0 5.0 0.00 0.00 0.00 82 1011.2
20260506023039 50 5 1.0 5.0 0.00 0.00 0.00 82 1011.0
20260506022519 50 15 2.0 4.0 0.00 0.00 0.00 82 1010.9
20260506022021 50 325 2.0 4.0 0.00 0.00 0.00 81 1011.0
20260506021538 50 340 2.0 4.0 0.00 0.00 0.00 81 1010.8
20260506021021 50 25 1.0 3.0 0.00 0.00 0.00 81 1010.8
20260506020525 50 26 0.0 3.0 0.00 0.00 0.00 80 1010.5
20260506020038 50 0 0.0 0.0 0.00 0.00 0.00 80 1010.6
20260506015523 50 0 0.0 4.0 0.00 0.00 0.00 80 1010.3
20260506015022 50 0 0.0 4.0 0.00 0.00 0.00 80 1010.3
20260506014537 50 26 2.0 4.0 0.00 0.00 0.00 80 1010.1
20260506014024 50 26 0.0 3.0 0.00 0.00 0.00 79 1010.0
20260506013521 50 15 1.0 5.0 0.00 0.00 0.00 79 1010.2
20260506013043 50 40 2.0 5.0 0.00 0.00 0.00 79 1010.0
20260506012522 50 43 2.0 3.0 0.00 0.00 0.00 78 1009.8
20260506012021 50 90 0.0 0.0 0.00 0.00 0.00 78 1010.0
20260506011539 50 0 0.0 3.0 0.00 0.00 0.00 78 1010.1
20260506011022 50 0 1.0 5.0 0.00 0.00 0.00 78 1009.9
20260506010522 50 89 1.0 5.0 0.00 0.00 0.00 78 1009.9
20260506010040 50 88 3.0 5.0 0.00 0.00 0.00 77 1009.7
20260506005521 50 71 3.0 5.0 0.00 0.00 0.00 77 1009.6
20260506005027 50 87 3.0 6.0 0.00 0.00 0.00 77 1009.6
20260506004605 50 55 3.0 7.0 0.00 0.00 0.00 77 1009.6
20260506004023 50 38 3.0 8.0 0.00 0.00 0.00 76 1009.7
20260506003522 50 59 5.0 11.0 0.00 0.00 0.00 76 1009.6
20260506003038 50 69 4.0 11.0 0.00 0.00 0.00 76 1009.5
20260506002522 50 62 6.0 11.0 0.00 0.00 0.00 76 1009.5
20260506002022 50 54 5.0 11.0 0.00 0.00 0.00 76 1009.5
20260506001538 50 63 7.0 13.0 0.00 0.00 0.00 75 1009.3
20260506001022 50 63 7.0 13.0 0.00 0.00 0.00 75 1009.3
20260506000521 50 55 8.0 13.0 0.00 0.00 0.00 75 1009.2
20260506000038 50 63 8.0 16.0 0.00 0.00 0.00 75 1009.1
20260505235522 50 61 7.0 16.0 0.00 0.00 0.00 75 1009.2
20260505235023 50 57 10.0 16.0 0.00 0.00 0.00 74 1009.1
20260505234604 50 72 10.0 16.0 0.00 0.00 0.00 74 1009.1
20260505234022 50 49 8.0 15.0 0.00 0.00 0.00 74 1009.1
20260505233521 50 42 9.0 15.0 0.00 0.00 0.00 74 1009.2
20260505233038 50 46 10.0 18.0 0.00 0.00 0.00 74 1009.1
20260505232522 50 61 11.0 18.0 0.00 0.00 0.00 73 1009.0
20260505232023 50 50 10.0 18.0 0.00 0.00 0.00 73 1009.2
20260505231539 50 67 12.0 18.0 0.00 0.00 0.00 72 1009.1
20260505231022 50 76 12.0 17.0 0.00 0.00 0.00 72 1009.0
20260505230522 50 43 10.0 21.0 0.00 0.00 0.00 72 1008.9
20260505230038 50 44 13.0 21.0 0.00 0.00 0.00 72 1008.9
20260505225522 50 53 11.0 18.0 0.00 0.00 0.00 71 1008.9
20260505225022 50 65 12.0 18.0 0.00 0.00 0.00 70 1008.9
20260505224538 51 65 12.0 18.0 0.00 0.00 0.00 71 1009.0
20260505224022 51 58 10.0 19.0 0.00 0.00 0.00 70 1008.8
20260505223522 51 32 9.0 19.0 0.00 0.00 0.00 71 1008.6
20260505223058 51 61 11.0 20.0 0.00 0.00 0.00 72 1008.6
20260505222522 50 40 12.0 21.0 0.00 0.00 0.00 71 1008.8
20260505222023 50 32 12.0 21.0 0.00 0.00 0.00 71 1008.9
20260505221539 50 54 10.0 19.0 0.00 0.00 0.00 71 1008.8
20260505221021 51 72 11.0 19.0 0.00 0.00 0.00 71 1008.7
20260505220521 51 43 13.0 22.0 0.00 0.00 0.00 71 1008.9
20260505220043 50 62 15.0 22.0 0.00 0.00 0.00 71 1009.1
20260505215523 50 55 15.0 22.0 0.00 0.00 0.00 71 1009.1
20260505215022 50 36 11.0 23.0 0.00 0.00 0.00 71 1009.0
20260505214542 50 52 16.0 23.0 0.00 0.00 0.00 70 1009.1
20260505214023 50 26 15.0 22.0 0.00 0.00 0.00 70 1009.1
20260505213522 50 56 15.0 26.0 0.00 0.00 0.00 69 1009.2
20260505213037 50 61 14.0 27.0 0.00 0.00 0.00 69 1009.3
20260505212522 51 58 19.0 27.0 0.00 0.00 0.00 68 1009.2
20260505212023 51 71 15.0 22.0 0.00 0.00 0.00 69 1009.2
20260505211539 51 36 14.0 22.0 0.00 0.00 0.00 71 1009.2
20260505211022 51 38 15.0 22.0 0.00 0.00 0.00 71 1009.2
20260505210521 51 33 13.0 22.0 0.00 0.00 0.00 71 1009.2
20260505210038 51 50 12.0 22.0 0.00 0.00 0.00 71 1009.3
20260505205523 51 55 11.0 19.0 0.00 0.00 0.00 71 1009.2
20260505205021 51 52 11.0 22.0 0.00 0.00 0.00 71 1009.3
20260505204537 51 71 12.0 22.0 0.00 0.00 0.00 71 1009.2
20260505204022 51 57 12.0 21.0 0.00 0.00 0.00 70 1009.1
20260505203522 51 76 16.0 22.0 0.00 0.00 0.00 70 1009.1
20260505203038 51 28 17.0 26.0 0.00 0.00 0.00 69 1009.1
20260505202523 51 58 15.0 26.0 0.00 0.00 0.00 69 1009.1
20260505202022 51 60 18.0 27.0 0.00 0.00 0.00 68 1009.1
20260505201538 51 60 18.0 27.0 0.00 0.00 0.00 67 1009.1
20260505201022 51 53 18.0 27.0 0.00 0.00 0.00 68 1009.3
20260505200522 51 57 14.0 23.0 0.00 0.00 0.00 70 1009.1
20260505200042 51 57 15.0 25.0 0.00 0.00 0.00 70 1009.0
20260505195523 51 60 16.0 31.0 0.00 0.00 0.00 69 1009.1
20260505195023 51 60 17.0 31.0 0.00 0.00 0.00 69 1009.1
20260505194539 51 47 19.0 31.0 0.00 0.00 0.00 69 1009.0
20260505194023 51 80 13.0 24.0 0.00 0.00 0.00 71 1009.1
20260505193522 51 44 15.0 24.0 0.00 0.00 0.00 70 1009.1
20260505193039 51 43 17.0 24.0 0.00 0.00 0.00 69 1009.1
20260505192523 51 49 14.0 24.0 0.00 0.00 0.00 67 1009.2
20260505192023 51 60 13.0 31.0 0.00 0.00 0.00 67 1009.2
20260505191538 51 71 21.0 31.0 0.00 0.00 0.00 66 1009.0
20260505191023 51 72 20.0 29.0 0.00 0.00 0.00 67 1009.0
20260505190525 52 42 18.0 32.0 0.00 0.00 0.00 67 1008.8
20260505190046 52 70 16.0 35.0 0.00 0.00 0.00 67 1008.7
20260505185522 52 61 17.0 35.0 0.00 0.00 0.00 66 1008.7
20260505185022 52 55 20.0 31.0 0.00 0.00 0.00 67 1008.4
20260505184538 51 50 17.0 31.0 0.00 0.00 0.00 68 1008.3
20260505184021 52 74 17.0 30.0 0.00 0.00 0.00 68 1008.2
20260505183522 52 65 16.0 26.0 0.00 0.00 0.00 68 1008.4
20260505183045 52 32 13.0 24.0 0.00 0.00 0.00 69 1008.4
20260505182522 52 53 14.0 28.0 0.00 0.00 0.00 68 1008.4
20260505182022 52 33 18.0 29.0 0.00 0.00 0.00 67 1008.4
20260505181540 52 81 20.0 30.0 0.00 0.00 0.00 67 1008.3
20260505181042 51 63 17.0 30.0 0.00 0.00 0.00 66 1008.3
20260505180522 51 60 20.0 33.0 0.00 0.00 0.00 66 1008.4
20260505180041 51 24 20.0 33.0 0.00 0.00 0.00 65 1008.6
20260505175521 52 44 23.0 31.0 0.00 0.00 0.00 65 1008.7
20260505175022 51 46 20.0 31.0 0.00 0.00 0.00 65 1008.8
20260505174540 52 42 19.0 31.0 0.00 0.00 0.00 64 1008.7
20260505174023 52 61 18.0 31.0 0.00 0.00 0.00 64 1008.5
20260505173526 52 61 20.0 31.0 0.00 0.00 0.00 65 1008.3
20260505173044 52 40 19.0 29.0 0.00 0.00 0.00 66 1008.3
20260505172524 52 34 19.0 32.0 0.00 0.00 0.00 66 1008.3
20260505172022 52 26 21.0 35.0 0.00 0.00 0.00 66 1008.5
20260505171538 52 55 22.0 35.0 0.00 0.00 0.00 65 1008.5
20260505171025 52 29 19.0 30.0 0.00 0.00 0.00 64 1008.5
20260505170522 52 44 18.0 30.0 0.00 0.00 0.00 64 1008.6
20260505170038 52 54 21.0 31.0 0.00 0.00 0.00 64 1008.5
20260505165522 52 64 22.0 31.0 0.00 0.00 0.00 63 1008.3
20260505165022 52 67 21.0 35.0 0.00 0.00 0.00 64 1008.2
20260505164539 52 54 20.0 35.0 0.00 0.00 0.00 65 1008.1
20260505164023 52 49 20.0 30.0 0.00 0.00 0.00 66 1008.1
20260505163523 52 46 18.0 30.0 0.00 0.00 0.00 66 1008.1
20260505163038 52 58 18.0 29.0 0.00 0.00 0.00 66 1008.1
20260505162521 52 47 19.0 38.0 0.00 0.00 0.00 65 1008.1
20260505162024 52 65 21.0 38.0 0.00 0.00 0.00 64 1008.2
20260505161540 52 44 22.0 32.0 0.00 0.00 0.00 64 1008.0
20260505161022 52 44 19.0 32.0 0.00 0.00 0.00 66 1008.0
20260505160523 52 52 18.0 32.0 0.00 0.00 0.00 64 1007.6
20260505153040 52 83 24.0 38.0 0.00 0.00 0.00 64 1006.8
20260505152523 52 67 21.0 36.0 0.00 0.00 0.00 65 1007.0
20260505152021 52 51 21.0 37.0 0.00 0.00 0.00 65 1006.9
20260505151535 52 60 20.0 37.0 0.00 0.00 0.00 65 1007.2
20260505151022 52 69 18.0 37.0 0.00 0.00 0.00 65 1007.1
20260505150522 52 65 14.0 32.0 0.00 0.00 0.00 65 1007.3
20260505140522 51 50 15.0 30.0 0.00 0.00 0.00 66 1007.1
20260505125024 52 54 16.0 31.0 0.00 0.00 0.00 67 1005.6
20260505124543 52 40 21.0 31.0 0.00 0.00 0.00 66 1005.6
20260505124020 52 71 19.0 34.0 0.00 0.00 0.00 66 1005.6
20260505123525 52 44 21.0 34.0 0.00 0.00 0.00 66 1005.4
20260505123038 52 48 19.0 30.0 0.00 0.00 0.00 65 1005.1
20260505122521 52 47 19.0 30.0 0.00 0.00 0.00 65 1005.1
20260505122026 52 49 18.0 33.0 0.00 0.00 0.00 66 1004.9
20260505121542 52 31 20.0 36.0 0.00 0.00 0.00 66 1004.9
20260505121021 52 17 19.0 36.0 0.00 0.00 0.00 66 1004.9
20260505120521 52 49 16.0 32.0 0.00 0.00 0.00 66 1004.8
20260505120047 53 58 21.0 34.0 0.00 0.00 0.00 65 1004.5
20260505115520 53 65 23.0 34.0 0.00 0.00 0.00 64 1004.4
20260505115023 53 67 16.0 33.0 0.00 0.00 0.00 64 1004.3
20260505114542 53 55 17.0 33.0 0.00 0.00 0.00 65 1004.2
20260505114023 53 37 19.0 33.0 0.00 0.00 0.00 64 1004.1
20260505113522 53 61 18.0 33.0 0.00 0.00 0.00 64 1004.0
20260505113036 53 52 20.0 33.0 0.00 0.00 0.00 64 1003.9
20260505112527 53 51 19.0 30.0 0.00 0.00 0.00 65 1003.6
20260505112020 53 35 19.0 30.0 0.00 0.00 0.00 65 1003.6
20260505111539 53 44 18.0 29.0 0.00 0.00 0.00 65 1003.6
20260505111023 53 70 19.0 30.0 0.00 0.00 0.00 65 1003.5
20260505110521 53 61 19.0 31.0 0.00 0.00 0.00 65 1003.3
20260505102024 54 63 22.0 37.0 0.00 0.00 0.00 67 1002.9
20260505101543 54 30 20.0 35.0 0.00 0.00 0.00 67 1002.9
20260505101023 54 44 23.0 35.0 0.00 0.00 0.00 67 1002.8
20260505100522 54 65 19.0 35.0 0.00 0.00 0.00 67 1002.8
20260505100041 54 40 21.0 35.0 0.00 0.00 0.00 68 1002.8
20260505095522 54 61 25.0 35.0 0.00 0.00 0.00 68 1002.6
20260505095021 54 56 22.0 36.0 0.00 0.00 0.00 69 1002.7
20260505094537 54 49 22.0 36.0 0.00 0.00 0.00 69 1002.6
20260505094023 54 59 25.0 34.0 0.00 0.00 0.00 70 1002.4
20260505093526 54 61 19.0 34.0 0.00 0.00 0.00 71 1002.5
20260505093037 55 57 22.0 34.0 0.00 0.00 0.00 72 1002.5
20260505092520 55 38 18.0 34.0 0.00 0.00 0.00 73 1002.5
20260505092023 56 26 21.0 31.0 0.00 0.00 0.00 73 1002.5
20260505091537 56 30 15.0 28.0 0.00 0.00 0.00 72 1002.5
20260505091020 56 61 15.0 28.0 0.00 0.00 0.00 71 1002.3
20260505090522 56 63 16.0 27.0 0.00 0.00 0.00 71 1002.1
20260505090040 57 61 16.0 32.0 0.00 0.00 0.00 72 1002.0
20260505085522 57 39 19.0 32.0 0.00 0.00 0.00 72 1001.9
20260505085023 57 72 17.0 30.0 0.00 0.00 0.00 72 1001.8
20260505084546 57 63 18.0 31.0 0.00 0.00 0.00 72 1001.7
20260505084021 57 48 21.0 33.0 0.00 0.00 0.00 72 1001.8
20260505083520 58 36 19.0 35.0 0.00 0.00 0.00 72 1001.6
20260505083038 58 28 24.0 35.0 0.00 0.00 0.00 72 1001.6
20260505082520 59 53 18.0 34.0 0.00 0.00 0.00 74 1001.7
20260505082020 59 49 20.0 34.0 0.00 0.00 0.00 77 1001.7
20260505081537 60 49 16.0 26.0 0.00 0.00 0.00 78 1001.6
20260505081022 60 48 16.0 22.0 0.00 0.00 0.00 79 1001.4
20260505080522 61 30 14.0 26.0 0.00 0.00 0.00 77 1001.4
20260505080037 62 34 18.0 26.0 0.00 0.00 0.00 75 1001.2
20260505075521 62 22 15.0 23.0 0.00 0.00 0.00 74 1001.1
20260505075025 62 51 14.0 23.0 0.00 0.00 0.00 74 1000.9
20260505074540 62 68 16.0 23.0 0.00 0.00 0.00 74 1000.8
20260505074021 62 51 15.0 27.0 0.00 0.00 0.00 74 1000.9
20260505073521 63 19 14.0 27.0 0.00 0.00 0.00 73 1000.9
20260505073044 64 24 14.0 28.0 0.00 0.00 0.00 72 1000.9
20260505072521 64 55 18.0 28.0 0.00 0.00 0.00 71 1000.8
20260505072020 65 44 18.0 28.0 0.00 0.00 0.00 75 1000.7
20260505071537 66 44 9.0 16.0 0.00 0.00 0.00 79 1000.7
20260505071020 65 56 8.0 13.0 0.00 0.00 0.00 79 1000.6
20260505070520 65 51 9.0 13.0 0.00 0.00 0.00 79 1000.5
20260505070048 64 54 8.0 11.0 0.00 0.00 0.00 79 1000.5
20260505065523 64 57 7.0 11.0 0.00 0.00 0.00 79 1000.5
20260505065021 64 44 4.0 11.0 0.00 0.00 0.00 79 1000.5
20260505064541 64 46 6.0 11.0 0.00 0.00 0.00 78 1000.4
20260505064021 64 61 4.0 8.0 0.00 0.00 0.00 78 1000.4
20260505063521 64 47 4.0 9.0 0.00 0.00 0.00 78 1000.3
20260505063039 64 22 4.0 10.0 0.00 0.00 0.00 78 1000.2
20260505062521 63 17 4.0 12.0 0.00 0.00 0.00 78 1000.2
20260505062021 63 352 6.0 12.0 0.00 0.00 0.00 79 1000.0
20260505061541 63 27 6.0 9.0 0.00 0.00 0.00 78 999.9
20260505061020 63 16 6.0 9.0 0.00 0.00 0.00 78 999.7
20260505060523 63 13 4.0 8.0 0.00 0.00 0.00 78 999.7
20260505060039 64 36 3.0 6.0 0.00 0.00 0.00 78 999.6
20260505055521 64 46 4.0 8.0 0.00 0.00 0.00 77 999.6
20260505055021 64 51 3.0 8.0 0.00 0.00 0.00 76 999.5
20260505054540 64 47 5.0 8.0 0.00 0.00 0.00 76 999.6
20260505054022 65 30 4.0 7.0 0.00 0.00 0.00 75 999.6
20260505053527 65 39 3.0 8.0 0.00 0.00 0.00 75 999.5
20260505053049 65 94 4.0 9.0 0.00 0.00 0.00 74 999.4
20260505052521 65 128 5.0 13.0 0.00 0.00 0.00 74 999.3
20260505052021 66 129 4.0 13.0 0.00 0.00 0.00 74 999.1
20260505051539 66 135 6.0 11.0 0.00 0.00 0.00 74 999.0
20260505051023 66 163 5.0 9.0 0.00 0.00 0.00 73 999.1
20260505050523 66 130 6.0 9.0 0.00 0.00 0.00 73 999.2
20260505041550 70 150 9.0 17.0 0.00 0.00 0.00 72 999.2
20260505041022 70 174 10.0 17.0 0.00 0.00 0.00 73 999.1
20260505040522 71 147 10.0 17.0 0.00 0.00 0.00 73 999.3
20260505040048 71 130 9.0 17.0 0.00 0.00 0.00 72 999.4
20260505035520 71 150 8.0 17.0 0.00 0.00 0.00 72 999.4